P/2007 T6 ( Catalina )

Japanese version
Home page
Updated on September 11, 2016

---------------------------------------------------------------------

* Profile

Discovery Date October 13, 2007
Magnitude 17.8 mag
Discoverer Catalina Sky Survey

* Orbital Elements

Epoch 2007 Aug. 8.0 TT = JDT 2454320.5
T 2007 Aug. 19.66590 TT                                 MPCW
q   2.2322202            (2000.0)            P               Q
n   0.10359401     Peri.  335.86908     +0.16988650     -0.91420762
a   4.4899994      Node   102.63318     +0.95433123     +0.05952287
e   0.5028462      Incl.   22.15078     +0.24574474     +0.40085091
P   9.51
From 255 observations 2007 Oct. 6-2016 Sept. 2, mean residual 0".6.

* Finding Charts

* Magnitudes Graph

        m1 = 12.0 + 5 log d + 10.0 log r

---------------------------------------------------------------------

The orbital elements are published on M.P.E.C. 2016-R19.
The charts are made with StellaNavigator Ver.8 (AstroArts).
The magnitudes graphs are made with Comet for Windows.

---------------------------------------------------------------------

Copyright(C) Seiichi Yoshida (comet@aerith.net). All rights reserved.